Torna al catalogo

THORAD AGENA D DEB

AttivoPO
NORAD 4921·DEBRIS·🇺🇸 United States

Lanciato Apr 8, 1970 da Vandenberg Space Force Base

Loading…

Prossimi Passaggi

TLE

Source: Space-Track
1 04921U 70025FT  26229.48256915  .00003404  00000-0  78499-3 0  9992
2 04921  99.7409  53.9481 0035545 260.5856  99.1318 14.55748259884506

Traccia THORAD AGENA D DEB in tempo reale con AllMySat

Download on the App Store